Regional Weather Roundup
Issued by NWS Northern Indiana

Home | Current Version | Previous Version | Graphics & Text | Print | Product List | Glossary On
Versions: 1 2 3 4 5 6 7 8 9 10 11 12 13 14 15 16 17 18 19 20 21 22 23 24 25 26 27 28 29 30 31 32 33 34 35 36 37 38 39 40 41 42 43 44 45 46 47 48 49 50
000
ASUS43 KIWX 310210
RWRIWX

KIWX WEATHER ROUNDUP
NATIONAL WEATHER SERVICE NORTHERN INDIANA
1000 PM EDT THU OCT 30 2014

NOTE: "FAIR" INDICATES FEW OR NO CLOUDS BELOW 12,000 FEET WITH NO
SIGNIFICANT WEATHER AND/OR OBSTRUCTIONS TO VISIBILITY.

* THESE STATIONS ARE NOT UNDER NWS QUALITY CONTROL. THEY ALSO MAY NOT
  REPORT WEATHER SUCH AS PRECIPITATION OR FOG.

INZ001>027-310300-
NORTHERN INDIANA

CITY           SKY/WX    TMP DP  RH WIND       PRES   REMARKS
GARY*          CLOUDY    48  37  66 W8        30.06F
VALPARAISO     CLOUDY    44  37  76 W5        30.05F
MICHIGAN CITY* CLOUDY    45  34  65 S3        30.05F
LAPORTE*       CLOUDY    47  38  72 CALM      30.05F
KNOX*          CLOUDY    43  37  79 CALM      30.04F
SOUTH BEND     CLOUDY    47  35  63 SW6       30.05F
GOSHEN         CLOUDY    47  35  63 W3        30.04F
MONTICELLO*    MOCLDY    45  39  81 CALM      30.05S
LOGANSPORT*    CLOUDY    45  36  70 CALM      30.06S
ROCHESTER*     MOCLDY    46  37  71 CALM      30.05F
WARSAW*        CLOUDY    45  36  70 CALM      30.05S
ANGOLA*        CLOUDY    45  36  70 SW3       30.03F
FORT WAYNE     CLOUDY    44  37  76 S6        30.06F
HUNTINGTON*    CLOUDY   N/A N/A N/A SE3       30.04F
PERU/GRISSOM   CLOUDY    47  38  71 NE1       30.04F
MARION*        CLOUDY    46  35  64 SE5       30.05F

$$
INZ028>050-310300-
CENTRAL INDIANA

CITY           SKY/WX    TMP DP  RH WIND       PRES   REMARKS
LAFAYETTE      CLOUDY    45  42  89 NW3       30.06S
KOKOMO*        CLOUDY    48  39  71 CALM      30.05F
MUNCIE*        CLOUDY    47  35  63 SE5       30.05F
INDIANAPOLIS   CLOUDY    49  37  63 S3        30.04F

$$
MIZ043>046-050>051-056>058-064>065-071>073-077>080-310300-
SOUTHWEST LOWER MICHIGAN

CITY           SKY/WX    TMP DP  RH WIND       PRES   REMARKS
BATTLE CREEK   CLOUDY    45  36  70 SW5       30.03F
BENTON HARBOR  CLOUDY    47  38  71 W5        30.03F
COLDWATER*     CLOUDY    46  37  68 W5        30.03S
HILLSDALE*     CLOUDY    44  37  75 S3        30.02F
HOLLAND        CLOUDY    49  38  65 W6        30.02F
GRAND RAPIDS   CLOUDY    46  38  73 SW5       30.02F
KALAMAZOO      CLOUDY    46  36  68 SW5       30.03F
STURGIS*       CLOUDY    45  37  76 CALM      30.03F
THREE RIVERS*  CLOUDY    45  38  76 CALM      30.04F

$$
OHZ001>008-015>018-024>025-310300-
NORTHWEST OHIO

CITY           SKY/WX    TMP DP  RH WIND       PRES   REMARKS
WAUSEON*       CLOUDY    45  36  70 SW6       30.04F
DEFIANCE       CLOUDY    44  36  73 S5        30.05F
FINDLAY        CLOUDY    46  36  68 CALM      30.05F
TOLEDO EXPRESS CLOUDY    45  36  70 S3        30.04F
TOLEDO METCALF CLOUDY    47  36  65 S5        30.05F
LIMA           CLOUDY    45  37  73 S3        30.05F

$$
AND FOR LAKE MICHIGAN COASTAL AND OPEN LAKE BUOY OBSERVATIONS

STATION/POSITION TEMP    WIND        PRES    VSBY  WAVE
                 AIR SEA DIR/SP/G                  HT/PER
                 (F)     (DEG/KT/KT) (MB)    (MI)  (FT/S)
CALUMET HARBOR                       1016.4F
MICHIGAN CITY     50     230/ 13/ 15   N/A
SAINT JOSEPH      51     220/  9/ 12 1017.6F
SOUTH LAKE BUOY   50 53  290/ 10/ 12 1017.0F         1/ 4

$$
&&



USA.gov is the U.S. government's official web portal to all federal, state and local government web resources and services.